Weather History for EIDW - February, 2013

Change the Weather History Date:

Thursday, February 7, 2013

  Actual Average Record
Temperature  
Mean Temperature 37 °F -  
Max Temperature 44 °F 47 °F 57 °F (2008)
Min Temperature 30 °F 36 °F 23 °F (2007)
Degree Days  
Heating Degree Days 28    
Moisture  
Dew Point 34 °F    
Average Humidity 93    
Maximum Humidity 100    
Minimum Humidity 87    
Precipitation  
Precipitation 0.20 in 0.07 in - ()
Sea Level Pressure  
Sea Level Pressure 30.13 in    
Wind  
Wind Speed 11 mph ()    
Max Wind Speed 17 mph    
Max Gust Speed -    
Visibility 6.6 miles    
Events Rain    
Averages and records for this station are not official NWS values.
T = Trace of Precipitation, MM = Missing Value Source: Averaged Metar Reports

Daily Weather History Graph

Daily Weather History Graph

Search for Another Location

Airport or City:

Trip Planner

Search our weather history database for the weather conditions in past years. The results will help you decide how hot, cold, wet, or windy it might be!

Date:

Astronomy

Feb. 07, 2013 Rise Set
Actual Time 7:59 AM GMT 5:20 PM GMT
Civil Twilight 7:21 AM GMT 5:57 PM GMT
Nautical Twilight 6:40 AM GMT 6:38 PM GMT
Astronomical Twilight 6:00 AM GMT 7:19 PM GMT
Moon 5:41 AM GMT (2/7) 2:14 PM GMT (2/7)
Length of Visible Light 10h 35m
Length of Day
9h 21m
Waning Crescent, 10% of the Moon is Illuminated
Feb 7
Waning Crescent
Feb 10
New
Feb 17
First Quarter
Feb 25
Full
Mar 4
Last Quarter

Hourly Weather History & Observations

Time (GMT) Temp. Windchill Dew Point Humidity Pressure Visibility Wind Dir Wind Speed Gust Speed Precip Events Conditions
12:00 AM 32 °F - 30 °F 88% 30.29 in 19 mi West 13.4 mph - -   Scattered Clouds
12:00 AM 32.0 °F 22.5 °F 30.2 °F 93% 30.27 in 6.2 mi West 12.7 mph - N/A   Mostly Cloudy
12:30 AM 32.0 °F 23.0 °F 30.2 °F 93% 30.27 in 6.2 mi West 11.5 mph - N/A   Mostly Cloudy
1:00 AM 32.0 °F 23.6 °F 30.2 °F 93% 30.24 in 6.2 mi WSW 10.4 mph - N/A   Mostly Cloudy
1:30 AM 32.0 °F 23.6 °F 30.2 °F 93% 30.24 in 6.2 mi WSW 10.4 mph - N/A   Mostly Cloudy
2:00 AM 32.0 °F 23.6 °F 30.2 °F 93% 30.24 in 6.2 mi West 10.4 mph - N/A   Mostly Cloudy
2:30 AM 32.0 °F 23.0 °F 30.2 °F 93% 30.24 in 6.2 mi West 11.5 mph - N/A   Mostly Cloudy
3:00 AM 32.0 °F 23.0 °F 30.2 °F 93% 30.24 in 6.2 mi West 11.5 mph - N/A   Mostly Cloudy
3:30 AM 32.0 °F 23.0 °F 30.2 °F 93% 30.24 in 6.2 mi WSW 11.5 mph - N/A   Mostly Cloudy
4:00 AM 32.0 °F 23.0 °F 30.2 °F 93% 30.21 in 6.2 mi West 11.5 mph - N/A   Mostly Cloudy
4:30 AM 32.0 °F 23.6 °F 30.2 °F 93% 30.21 in 6.2 mi WSW 10.4 mph - N/A   Mostly Cloudy
5:00 AM 32.0 °F 23.6 °F 32.0 °F 100% 30.21 in 6.2 mi WSW 10.4 mph - N/A   Mostly Cloudy
5:30 AM 33.8 °F 25.8 °F 32.0 °F 93% 30.21 in 6.2 mi West 10.4 mph - N/A   Mostly Cloudy
6:00 AM 34 °F - 32 °F 87% 30.22 in 19 mi West 13.4 mph - -   Scattered Clouds
6:00 AM 33.8 °F 24.8 °F 32.0 °F 93% 30.18 in 6.2 mi West 12.7 mph - N/A   Mostly Cloudy
6:30 AM 33.8 °F 25.3 °F 32.0 °F 93% 30.18 in 6.2 mi WSW 11.5 mph - N/A   Mostly Cloudy
7:00 AM 33.8 °F 23.9 °F 32.0 °F 93% 30.18 in 6.2 mi WSW 15.0 mph - N/A   Mostly Cloudy
7:30 AM 33.8 °F 24.3 °F 32.0 °F 93% 30.18 in 6.2 mi WSW 13.8 mph - N/A   Mostly Cloudy
8:00 AM 33.8 °F 24.8 °F 32.0 °F 93% 30.18 in 6.2 mi WSW 12.7 mph - N/A   Mostly Cloudy
8:30 AM 33.8 °F 25.3 °F 32.0 °F 93% 30.15 in 6.2 mi WSW 11.5 mph - N/A   Mostly Cloudy
9:00 AM 35.6 °F 27.5 °F 32.0 °F 87% 30.15 in 6.2 mi WSW 11.5 mph - N/A   Mostly Cloudy
9:30 AM 35.6 °F 27.5 °F 32.0 °F 87% 30.12 in 6.2 mi WSW 11.5 mph - N/A   Mostly Cloudy
10:00 AM 37.4 °F 30.8 °F 33.8 °F 87% 30.12 in 6.2 mi SW 9.2 mph - N/A   Mostly Cloudy
10:30 AM 37.4 °F 30.3 °F 33.8 °F 87% 30.09 in 6.2 mi WSW 10.4 mph - N/A Rain Light Rain
11:00 AM 37.4 °F 30.8 °F 35.6 °F 93% 30.09 in 6.2 mi SW 9.2 mph - N/A Rain Light Rain
11:30 AM 37.4 °F 32.1 °F 35.6 °F 93% 30.06 in 6.2 mi SSW 6.9 mph - N/A Rain Light Rain
12:00 PM 38 °F - 37 °F 94% 30.06 in 5 mi SSW 6.7 mph - - Rain Light Rain
12:00 PM 39.2 °F 34.2 °F 37.4 °F 93% 30.04 in 5.0 mi SSW 6.9 mph - N/A Rain Light Rain
12:30 PM 39.2 °F 35.9 °F 37.4 °F 93% 30.04 in 5.6 mi South 4.6 mph - N/A Rain Light Rain
1:00 PM 39.2 °F 32.5 °F 37.4 °F 93% 30.01 in 6.2 mi SW 10.4 mph - N/A Rain Light Rain
1:30 PM 39.2 °F 30.8 °F 37.4 °F 93% 29.98 in 6.2 mi WSW 15.0 mph - N/A Rain Light Rain
2:00 PM 41.0 °F 34.3 °F 39.2 °F 93% 29.95 in 3.1 mi SW 11.5 mph - N/A Rain Light Rain
3:00 PM 42.8 °F 35.4 °F 41.0 °F 93% 29.89 in 2.8 mi West 15.0 mph - N/A Rain Light Rain
3:30 PM 44.6 °F 37.2 °F 42.8 °F 93% 29.92 in 3.7 mi WNW 17.3 mph - N/A Rain Light Rain
4:00 PM 42.8 °F 35.1 °F 41.0 °F 93% 29.95 in 6.2 mi North 16.1 mph - N/A Rain Light Rain
4:30 PM 39.2 °F 30.5 °F 39.2 °F 100% 30.01 in 5.6 mi NNE 16.1 mph - N/A   Light Drizzle
5:00 PM 39.2 °F 31.2 °F 37.4 °F 93% 30.04 in 6.2 mi North 13.8 mph - N/A   Mostly Cloudy
5:30 PM 37.4 °F 28.5 °F 35.6 °F 93% 30.06 in 6.2 mi NNW 15.0 mph - N/A   Mostly Cloudy
6:00 PM 37 °F - 35 °F 92% 30.12 in 12 mi NNW 13.4 mph - - Rain Light Rain
6:00 PM 37.4 °F 29.3 °F 35.6 °F 93% 30.09 in 6.2 mi NNW 12.7 mph - N/A   Mostly Cloudy
6:30 PM 37.4 °F 29.3 °F 35.6 °F 93% 30.12 in 6.2 mi NNW 12.7 mph - N/A   Mostly Cloudy
7:00 PM 35.6 °F 27.5 °F 35.6 °F 100% 30.12 in 6.2 mi NW 11.5 mph - N/A   Mostly Cloudy
7:30 PM 37.4 °F 30.8 °F 35.6 °F 93% 30.12 in 6.2 mi WNW 9.2 mph - N/A   Mostly Cloudy
8:00 PM 37.4 °F 30.8 °F 35.6 °F 93% 30.12 in 6.2 mi WNW 9.2 mph - N/A   Mostly Cloudy
8:30 PM 35.6 °F 27.5 °F 33.8 °F 93% 30.15 in 6.2 mi West 11.5 mph - N/A   Mostly Cloudy
9:00 PM 37.4 °F 28.9 °F 35.6 °F 93% 30.15 in 6.2 mi West 13.8 mph - N/A   Mostly Cloudy
9:30 PM 35.6 °F 27.5 °F 35.6 °F 100% 30.15 in 6.2 mi West 11.5 mph - N/A   Mostly Cloudy
10:00 PM 37.4 °F 29.8 °F 35.6 °F 93% 30.15 in 6.2 mi West 11.5 mph - N/A   Mostly Cloudy
10:30 PM 35.6 °F 27.5 °F 33.8 °F 93% 30.15 in 6.2 mi West 11.5 mph - N/A   Mostly Cloudy
11:00 PM 37.4 °F 28.5 °F 35.6 °F 93% 30.15 in 6.2 mi West 15.0 mph - N/A Rain Light Rain
11:30 PM 39.2 °F 30.8 °F 37.4 °F 93% 30.15 in 6.2 mi WNW 15.0 mph - N/A Rain Light Rain